Weather 🌤️

Recent data

Temperatures

Wind

Pressure

Humidity & Precipitation

Last data
obsTime qcStatus tempAvg heatindexAvg windspeedAvg windgustAvg winddirAvg pressureAvg humidityAvg precipRate precipTotal
2026-09-06 15:34:48 1 31.1 31.1 1.5 9 182 998.98 41 0 0
2026-09-06 15:29:56 1 31.2 31.3 2 9 184 998.98 41 0 0
2026-09-06 15:24:56 1 31.1 31.3 3.1 9 155 998.98 41.2 0 0
2026-09-06 15:19:51 1 31 31.2 3.1 9 136 998.82 41.8 0 0
2026-09-06 15:14:56 1 30.9 31.1 3.3 8.8 253 999.15 42 0 0
2026-09-06 15:09:56 1 30.7 30.9 3.4 6.1 157 998.98 43.1 0 0
2026-09-06 15:04:56 1 30.4 30.6 2.8 6.9 227 999.15 43.6 0 0
2026-09-06 14:59:56 1 30.2 30.4 3 6.9 188 999.15 44 0 0
2026-09-06 14:59:49 1 30.2 30.4 3.1 6.9 187 999.15 44 0 0
2026-09-06 14:54:56 0 30 30.2 1.4 6.9 171 999.15 44 0 0
2026-09-06 14:49:56 0 30 30.2 1.6 6.9 188 999.15 44 0 0
2026-09-06 14:44:56 1 30.1 30.3 1.7 7.8 176 999.15 44 0 0

Hourly data

Temperatures

Wind

Pressure

Humidity & Precipitation

Last data
obsTime qcStatus tempAvg heatindexAvg windspeedAvg windgustAvg winddirAvg pressureAvg humidityAvg precipRate precipTotal
2026-09-06 14:59:56 0 30.1 30.4 2.6 8.1 171 999.32 44.9 0 0
2026-09-06 13:59:56 1 28.7 29.5 3.2 7.6 192 1000 52 0 0
2026-09-06 12:59:47 1 26.7 27.4 2.1 6.1 199 1000.85 57.1 0 0
2026-09-06 11:59:56 1 24.7 24.8 2.1 6 180 1001.53 60.1 0 0
2026-09-06 10:59:56 1 22.8 22.8 1.5 4 196 1002.03 62.8 0 0
2026-09-06 09:59:56 1 21.1 21 1 5.2 206 1002.37 64.6 0 0
2026-09-06 08:59:48 0 20.5 20.5 2.5 5.5 209 1002.54 64.6 0 0
2026-09-06 07:59:56 0 20.6 20.6 0.7 2.6 202 1002.37 63.7 0 0
2026-09-06 06:59:56 0 21.3 21.1 0 0.7 196 1002.2 62.4 0 0
2026-09-06 05:59:56 0 21.9 21.7 0 1.7 195 1002.2 60.6 0 0
2026-09-06 04:59:56 0 22.4 22.3 0.3 2.2 206 1002.2 59.1 0 0
2026-09-06 03:59:56 0 23.1 22.9 0.3 3.9 214 1002.37 57.5 0 0
2026-09-06 02:59:56 0 23.6 23.5 1.6 6.6 220 1002.54 56.1 0 0
2026-09-06 01:59:56 0 24.2 24.1 2.4 6.7 223 1002.54 55.1 0 0
2026-09-06 00:59:56 0 24.6 24.5 2.8 7.8 225 1002.71 54.9 0 0
2026-09-05 23:59:51 0 25.3 25.3 2.9 6.1 227 1002.71 53.4 0 0
2026-09-05 22:59:56 0 26 26 1.7 6 215 1003.05 52.1 0 0
2026-09-05 21:59:49 0 26.6 26.8 1.5 7.2 221 1002.54 50.6 0 0
2026-09-05 20:59:53 0 27.5 27.8 3.7 14 280 1002.03 48.8 0 0
2026-09-05 19:59:57 1 28.5 28.7 6.9 13.6 279 1001.53 46.6 0 0
2026-09-05 18:59:57 1 29.4 29.5 5.1 11.8 280 1001.53 45.1 0 0
2026-09-05 17:59:49 1 29.3 29.4 4.8 11.9 277 1001.36 45 0 0
2026-09-05 16:59:49 1 29.1 29.2 4.4 15.1 249 1001.69 45 0 0
2026-09-05 15:59:57 1 28.7 28.7 5 17.1 255 1002.03 44.4 0 0